Location: Unspecified
(48.5639°N, 13.4747°E)
Time: 14:21:29
(UTC+01:00)

ISS - Visible Passes

Search period start: 25 February 2018 00:00
Search period end: 07 March 2018 00:00
Orbit: 402 x 407 km, 51.6° (Epoch: 25 February)

Date Brightness Start Highest point End Pass type
(mag) Time Alt. Az. Time Alt. Az. Time Alt. Az.
27 Feb -0.9 05:33:43 10° SSE 05:35:17 13° SE 05:36:51 10° ESE visible
28 Feb -2.5 06:15:57 10° SW 06:19:03 40° SSE 06:22:09 10° ENE visible
01 Mar -1.8 05:24:09 10° SSW 05:26:54 25° SE 05:29:39 10° E visible
02 Mar -1.3 04:34:13 15° SSE 04:34:48 15° SE 04:36:50 10° E visible
02 Mar -3.6 06:07:34 10° WSW 06:10:51 74° SSE 06:14:07 10° ENE visible
03 Mar -3.1 05:16:53 23° SSW 05:18:35 47° SSE 05:21:45 10° ENE visible
04 Mar -2.1 04:26:47 28° SE 04:26:47 28° SE 04:29:17 10° E visible
04 Mar -3.8 05:59:26 10° WSW 06:02:40 70° NNW 06:05:58 10° ENE visible
05 Mar -3.9 05:09:14 39° WSW 05:10:19 84° SSE 05:13:36 10° ENE visible
06 Mar -2.4 04:18:58 38° E 04:18:58 38° E 04:21:14 10° ENE visible
06 Mar -3.4 05:51:36 12° W 05:54:32 52° N 05:57:46 10° ENE visible
